Weather History for KUGN - August, 2014

Change the Weather History Date:

Thursday, August 7, 2014

  Actual Average Record
Temperature  
Mean Temperature 66 °F -  
Max Temperature 78 °F 80 °F 95 °F (2001)
Min Temperature 54 °F 61 °F 52 °F (2002)
Degree Days  
Heating Degree Days 0 0  
Month to date heating degree days 0 0  
Since 1 June heating degree days 107 98  
Since 1 July heating degree days 34 12  
Cooling Degree Days 1 6  
Month to date cooling degree days 31 42  
Year to date cooling degree days 238 377  
Since 1 June cooling degree days 215 352  
Growing Degree Days 16 (Base 50)    
Moisture  
Dew Point 57 °F    
Average Humidity 73    
Maximum Humidity 100    
Minimum Humidity 46    
Precipitation  
Precipitation 0.00 in 0.13 in 1.53 in (2007)
Month to date precipitation 0.16 0.84  
Year to date precipitation 19.40 21.46  
Sea Level Pressure  
Sea Level Pressure 30.07 in    
Wind  
Wind Speed 5 mph (NE)    
Max Wind Speed 12 mph    
Max Gust Speed 16 mph    
Visibility 9 miles    
Events      
T = Trace of Precipitation, MM = Missing Value Source: NWS Daily Summary

Daily Weather History Graph

Daily Weather History Graph

Search for Another Location

Airport or City:

Trip Planner

Search our weather history database for the weather conditions in past years. The results will help you decide how hot, cold, wet, or windy it might be!

Date:

Astronomy

Aug. 07, 2014 Rise Set
Actual Time 5:50 AM CDT 8:03 PM CDT
Civil Twilight 5:18 AM CDT 8:34 PM CDT
Nautical Twilight 4:40 AM CDT 9:13 PM CDT
Astronomical Twilight 3:57 AM CDT 9:55 PM CDT
Moon 5:20 PM CDT (8/7) 2:19 AM CDT (8/7)
Length of Visible Light 15h 15m
Length of Day
14h 13m
Waxing Gibbous, 87% of the Moon is Illuminated
Aug 7
Waxing Gibbous
Aug 10
Full
Aug 17
Last Quarter
Aug 25
New
Sep 2
First Quarter

Hourly Weather History & Observations

Time (CDT) Temp. Dew Point Humidity Pressure Visibility Wind Dir Wind Speed Gust Speed Precip Events Conditions
12:52 AM 55.9 °F 54.0 °F 93% 30.07 in 10.0 mi NNE 4.6 mph - N/A   Clear
1:52 AM 59.0 °F 55.9 °F 90% 30.07 in 10.0 mi NNE 5.8 mph - N/A   Clear
2:52 AM 59.0 °F 57.9 °F 96% 30.07 in 7.0 mi Calm Calm - N/A   Clear
3:52 AM 55.9 °F 55.0 °F 97% 30.07 in 7.0 mi Calm Calm - N/A   Clear
4:52 AM 55.9 °F 54.0 °F 93% 30.08 in 6.0 mi Calm Calm - N/A   Clear
5:52 AM 55.0 °F 54.0 °F 96% 30.08 in 8.0 mi Calm Calm - N/A   Clear
6:52 AM 62.1 °F 60.1 °F 93% 30.09 in 8.0 mi NNE 3.5 mph - N/A   Clear
7:52 AM 66.9 °F 61.0 °F 81% 30.10 in 10.0 mi NE 4.6 mph - N/A   Clear
8:11 AM 69.1 °F 60.1 °F 73% 30.11 in 10.0 mi ENE 8.1 mph - N/A   Partly Cloudy
8:52 AM 70.0 °F 59.0 °F 68% 30.10 in 10.0 mi ENE 6.9 mph - N/A   Clear
9:52 AM 73.0 °F 57.9 °F 59% 30.10 in 10.0 mi Variable 3.5 mph - N/A   Clear
10:52 AM 73.9 °F 57.0 °F 55% 30.10 in 10.0 mi East 6.9 mph - N/A   Clear
11:52 AM 75.9 °F 55.0 °F 48% 30.10 in 10.0 mi East 5.8 mph - N/A   Clear
12:52 PM 77.0 °F 55.0 °F 47% 30.09 in 10.0 mi East 9.2 mph - N/A   Clear
1:52 PM 75.9 °F 54.0 °F 46% 30.08 in 10.0 mi ENE 9.2 mph - N/A   Clear
2:52 PM 77.0 °F 55.0 °F 47% 30.07 in 10.0 mi ENE 6.9 mph - N/A   Clear
3:52 PM 77.0 °F 55.0 °F 47% 30.06 in 10.0 mi NE 8.1 mph - N/A   Clear
4:52 PM 75.0 °F 54.0 °F 48% 30.05 in 10.0 mi NNE 8.1 mph - N/A   Clear
5:52 PM 73.9 °F 54.0 °F 50% 30.04 in 10.0 mi NE 8.1 mph - N/A   Clear
6:52 PM 72.0 °F 55.9 °F 57% 30.04 in 10.0 mi NNE 6.9 mph - N/A   Clear
7:52 PM 66.9 °F 60.1 °F 79% 30.04 in 9.0 mi NNE 5.8 mph - N/A   Clear
8:52 PM 64.9 °F 62.1 °F 90% 30.04 in 9.0 mi NNE 6.9 mph - N/A   Clear
9:52 PM 64.0 °F 60.1 °F 87% 30.05 in 9.0 mi NNE 4.6 mph - N/A   Clear
10:52 PM 62.1 °F 59.0 °F 90% 30.05 in 8.0 mi North 3.5 mph - N/A   Clear
11:52 PM 60.1 °F 59.0 °F 96% 30.06 in 8.0 mi Calm Calm - N/A   Clear